This demonstration page uses our WeatherBlox Daily Observations layout. Learn more.

Left ArrowRight Arrow

39.51506, -84.39828

Hourly Observations for March 16, 2015

Temp ( °F °C ) Dew Point ( °F °C ) Humidity (%) Winds ( mph kmh ) Pressure ( in mb ) Visibility ( mi km ) Precip ( " mm )
12:15 am 00:15 Clear 48 8.8 40 4.6 75 75 SW 7 11 30.15 1021 10 16 N/A
12:35 am 00:35 Clear 49 9.6 40 4.7 72 72 SW 6 9 30.15 1021 10 16 N/A
12:55 am 00:55 Clear 49 9.6 40 4.6 71 71 SW 6 9 30.15 1021 10 16 N/A
1:15 am 01:15 Clear 49 9.6 39 3.7 67 67 SW 6 9 30.12 1020 10 16 N/A
1:35 am 01:35 Clear 49 9.6 39 3.7 67 67 SSW 7 11 30.12 1020 10 16 N/A
1:55 am 01:55 Clear 49 9.6 38 3.3 65 65 SW 7 11 30.12 1020 10 16 N/A
2:15 am 02:15 Clear 49 9.6 39 3.9 68 68 SW 7 11 30.09 1019 10 16 N/A
2:35 am 02:35 Clear 49 9.6 38 3.2 65 65 N N/A 30.12 1020 10 16 N/A
2:55 am 02:55 Clear 50 10.1 38 3.1 62 62 SW 6 9 30.12 1020 10 16 N/A
3:15 am 03:15 Clear 49 9.6 38 3.1 64 64 SW 3 6 30.12 1020 10 16 N/A
3:35 am 03:35 Clear 51 10.7 39 3.9 63 63 SW 5 7 30.12 1020 10 16 N/A
3:55 am 03:55 Clear 49 9.6 37 3 64 64 SW 5 7 30.12 1020 10 16 N/A
4:15 am 04:15 Clear 48 8.7 38 3.6 71 71 SSW 5 7 30.09 1019 10 16 N/A
4:35 am 04:35 Clear 47 8.2 39 4.1 76 76 SW 5 7 30.09 1019 10 16 N/A
4:55 am 04:55 Clear 44 6.8 38 3.3 79 79 SW 6 9 30.09 1019 10 16 N/A
5:15 am 05:15 Clear 43 6.1 37 2.7 79 79 SW 6 9 30.09 1019 10 16 N/A
5:35 am 05:35 Clear 44 6.9 37 3 76 76 SW 6 9 30.09 1019 10 16 N/A
5:55 am 05:55 Clear 44 6.8 37 2.8 76 76 SW 6 9 30.09 1019 10 16 N/A
6:15 am 06:15 Clear 46 7.6 38 3.4 75 75 SSW 6 9 30.06 1018 10 16 N/A
6:35 am 06:35 Clear 43 6.3 37 2.6 77 77 SW 6 9 30.06 1018 10 16 N/A
6:55 am 06:55 Clear 44 6.4 37 2.6 77 77 SW 7 11 30.06 1018 10 16 N/A
7:15 am 07:15 Clear 44 6.5 37 2.8 77 77 SW 8 13 30.06 1018 10 16 N/A
7:35 am 07:35 Clear 43 6.3 37 2.6 77 77 SW 8 13 30.06 1018 10 16 N/A
7:55 am 07:55 Sunny 43 5.9 36 2.3 78 78 SW 8 13 30.06 1018 10 16 N/A
8:15 am 08:15 Sunny 43 6.1 37 2.7 79 79 SW 9 15 30.06 1018 10 16 N/A
8:35 am 08:35 Sunny 46 7.8 40 4.3 79 79 SW 9 15 30.09 1019 10 16 N/A
8:55 am 08:55 Sunny 49 9.6 41 5 73 73 SW 7 11 30.09 1019 10 16 N/A
9:15 am 09:15 Sunny 52 11 41 5 67 67 SW 6 9 30.09 1019 10 16 N/A
9:35 am 09:35 Sunny 55 12.5 41 4.8 60 60 SW 6 9 30.09 1019 10 16 N/A
9:55 am 09:55 Sunny 57 13.8 40 4.3 53 53 SW 8 13 30.06 1018 10 16 N/A
10:15 am 10:15 Sunny 59 15.2 40 4.4 49 49 SW 10 17 30.06 1018 10 16 N/A
10:35 am 10:35 Sunny 61 16 38 3.6 44 44 SW 7 11 30.03 1017 10 16 N/A
10:55 am 10:55 Sunny 64 17.8 36 2.2 35 35 WSW 15 24 30.03 1017 10 16 N/A
11:15 am 11:15 Sunny 64 18 35 1.9 34 34 W 18 30 30.03 1017 10 16 N/A
11:35 am 11:35 Sunny 67 19.5 37 2.6 33 33 W 15 24 30.06 1018 10 16 N/A
11:55 am 11:55 Sunny 68 20 36 2.4 31 31 WNW 13 20 30.06 1018 10 16 N/A
12:15 pm 12:15 Sunny 69 20.8 38 3.2 31 31 WNW 12 19 30.03 1017 10 16 N/A
12:35 pm 12:35 Sunny 69 20.8 38 3.4 32 32 W 15 24 30.03 1017 10 16 N/A
12:55 pm 12:55 Sunny 69 20.8 38 3.5 32 32 W 13 20 30.03 1017 10 16 N/A
1:15 pm 13:15 Sunny 69 20.8 37 2.9 31 31 W 15 24 30.03 1017 10 16 N/A
1:35 pm 13:35 Sunny 69 20.8 37 2.7 30 30 W 10 17 30.00 1016 10 16 N/A
1:55 pm 13:55 Sunny 69 20.8 37 2.5 30 30 WSW 13 20 30.00 1016 10 16 N/A
2:15 pm 14:15 Sunny 69 20.8 35 1.6 28 28 W 10 17 30.00 1016 10 16 N/A
2:35 pm 14:35 Sunny 70 20.9 35 1.6 28 28 WSW 10 17 29.97 1015 10 16 N/A
2:55 pm 14:55 Sunny 70 20.9 34 1.2 27 27 WSW 10 17 29.97 1015 10 16 N/A
3:15 pm 15:15 Sunny 74 23.6 38 3.5 27 27 WSW 10 17 29.97 1015 10 16 N/A
3:35 pm 15:35 Sunny 74 23.6 35 1.9 24 24 WSW 10 17 29.94 1014 10 16 N/A
3:55 pm 15:55 Sunny 74 23.6 34 1 23 23 WSW 9 15 29.94 1014 10 16 N/A
4:15 pm 16:15 Sunny 74 23.6 33 0.8 22 22 WSW 14 22 29.94 1014 10 16 N/A
4:35 pm 16:35 Sunny 74 23.6 33 0.5 22 22 SW 17 28 29.94 1014 10 16 N/A
4:55 pm 16:55 Sunny 75 23.8 33 0.6 22 22 SW 13 20 29.91 1013 10 16 N/A
5:15 pm 17:15 Sunny 74 23.6 32 undefined 21 21 WSW 12 19 29.91 1013 10 16 N/A
5:35 pm 17:35 Sunny 74 23.6 35 1.5 23 23 WSW 13 20 29.91 1013 10 16 N/A
5:55 pm 17:55 Sunny 74 23.6 35 1.9 24 24 SW 8 13 29.91 1013 10 16 N/A
6:15 pm 18:15 Sunny 74 23.6 38 3.2 26 26 WSW 12 19 29.91 1013 10 16 N/A
6:35 pm 18:35 Sunny 74 23.6 36 2.4 25 25 WSW 9 15 29.91 1013 10 16 N/A
6:55 pm 18:55 Sunny 74 23.6 38 3.5 27 27 WSW 13 20 29.91 1013 10 16 N/A
7:15 pm 19:15 Sunny 72 22.1 38 3.1 29 29 WSW 13 20 29.88 1012 10 16 N/A
7:35 pm 19:35 Sunny 69 20.8 39 4 33 33 SW 8 13 29.88 1012 10 16 N/A
7:55 pm 19:55 Clear 67 19.5 40 4.2 37 37 SW 6 9 29.88 1012 10 16 N/A
8:15 pm 20:15 Clear 64 17.9 38 3.6 39 39 SW 7 11 29.88 1012 10 16 N/A
8:35 pm 20:35 Clear 64 18 39 4 40 40 SW 6 9 29.88 1012 10 16 N/A
8:55 pm 20:55 Clear 61 16 40 4.6 47 47 SSW 5 7 29.88 1012 10 16 N/A
9:15 pm 21:15 Clear 60 15.3 41 4.8 50 50 SW 6 9 29.88 1012 10 16 N/A
9:35 pm 21:35 Clear 60 15.3 43 6.1 54 54 SW 6 9 29.88 1012 10 16 N/A
9:55 pm 21:55 Clear 60 15.3 43 5.9 54 54 SW 8 13 29.88 1012 10 16 N/A
10:15 pm 22:15 Clear 58 14.6 42 5.8 56 56 SW 8 13 29.88 1012 10 16 N/A
10:35 pm 22:35 Clear 60 15.3 43 6 54 54 SW 8 13 29.88 1012 10 16 N/A
10:55 pm 22:55 Clear 60 15.3 43 6.3 55 55 SW 12 19 29.85 1011 10 16 N/A
11:15 pm 23:15 Clear 60 15.3 43 6.2 55 55 SW 12 19 29.85 1011 10 16 N/A
11:35 pm 23:35 Clear 61 16 43 6 52 52 WSW 9 15 29.85 1011 10 16 N/A
11:55 pm 23:55 Clear 61 16 43 6.1 52 52 WSW 7 11 29.85 1011 10 16 N/A

Powered by AerisWeather